Weather in Loja

Latvia     57°09′21″N   24°38′55″E
temp.,
°C
wind,
m/s
gust,
m/s
humid.,
%
clouds,
%
prec.,
mm/h
press.,
hPa
HPBL,
m
4 march, thu
thu423:00+2w4987100 0.0 1011560
02:00+1w3789100 0.0 1009445
05:00+1nw3897100 0.3 1007443
08:00−1nw388595 0.4 1007508
11:00+1nnw46570 0.0 1008993
14:00+2nw46580 0.0 10091161
17:000nw47601 0.0 10091001
20:00−2nw27721 0.0 1010216
5 march, fri
fri523:00−3wnw25740 0.0 1010185
02:00−3wnw268812 0.1 1011502
05:00−3nw378670 0.3 1011669
08:00−4n595574 0.5 1013969
11:00−2nnw58380 0.0 10151917
14:00−2nw584650 0.1 10161824
17:00−2nnw474593 0.1 10171567
20:00−4nnw386347 0.1 1020401
6 march, sat
sat623:00−5nnw25670 0.0 1021257
02:00−5wnw22730 0.0 102358
05:00−5w228117 0.0 102247
08:00−4sw377432 0.0 1022320
11:00−1wsw5105436 0.0 10191086
14:00+2wsw7144767 0.0 10161525
17:00+1wsw71654100 0.0 10121414
20:000wsw71573100 0.0 10091257
7 march, sun
sun723:00+2wsw71679100 0.0 10041276
02:000wnw71296100 1.4 1002928
05:00−1nw61267100 1.5 10011616
08:00−2wnw71446100 1.7 10022764
11:00−2nw10175096 0.4 10032513
14:00−2nw9164685 0.6 10042340
17:00−4nw81574100 0.1 10051638
20:00−4nw61167100 0.3 10071317
8 march, mon
mon823:00−5nnw4969100 0.1 10091165
02:00−6nnw4871100 0.1 10121059
05:00−7n4875100 0.1 10141053
08:00−7n4870100 0.1 1017867
11:00−5n485061 0.0 10191233
14:00−3nnw474431 0.0 10211353
17:00−4nnw46450 0.0 10221206
20:00−6nnw26600 0.0 1024204